Time,TemperatureF,DewpointF,PressureIn,WindDirection,WindDirectionDegrees,WindSpeedMPH,WindSpeedGustMPH,Humidity,HourlyPrecipIn,Conditions,Clouds,dailyrainin,SolarRadiationWatts/m^2,SoftwareType,DateUTC
2013-04-16 00:02:00,42.2,38.0,29.94,NW,311,5.0,-999.0,85,-99.99,,,0.00,0,weatherlink.com 1.10,2013-04-16 05:02:00,
2013-04-16 00:17:00,42.2,38.0,29.95,NW,320,4.0,-999.0,85,-99.99,,,0.00,0,weatherlink.com 1.10,2013-04-16 05:17:00,
2013-04-16 00:32:00,42.2,38.0,29.95,NNW,327,4.0,-999.0,85,-99.99,,,0.00,0,weatherlink.com 1.10,2013-04-16 05:32:00,
2013-04-16 00:47:00,42.3,38.0,29.96,NW,315,4.0,-999.0,85,-99.99,,,0.00,0,weatherlink.com 1.10,2013-04-16 05:47:00,
2013-04-16 01:02:00,42.3,38.0,29.95,NW,306,6.0,-999.0,85,-99.99,,,0.00,0,weatherlink.com 1.10,2013-04-16 06:02:00,
2013-04-16 01:17:00,42.2,38.0,29.95,NW,307,6.0,-999.0,86,-99.99,,,0.00,0,weatherlink.com 1.10,2013-04-16 06:17:00,
2013-04-16 01:32:00,42.1,38.0,29.95,NW,304,6.0,-999.0,85,-99.99,,,0.00,0,weatherlink.com 1.10,2013-04-16 06:32:00,
2013-04-16 01:47:00,41.9,38.0,29.96,WNW,298,6.0,-999.0,85,-99.99,,,0.00,0,weatherlink.com 1.10,2013-04-16 06:47:00,
2013-04-16 02:02:00,42.1,38.0,29.97,WNW,299,5.0,-999.0,84,-99.99,,,0.00,0,weatherlink.com 1.10,2013-04-16 07:02:00,
2013-04-16 02:17:00,41.9,37.0,29.98,NW,312,9.0,-999.0,83,-99.99,,,0.00,0,weatherlink.com 1.10,2013-04-16 07:17:00,
2013-04-16 02:32:00,41.8,37.0,29.98,NW,314,10.0,-999.0,82,-99.99,,,0.00,0,weatherlink.com 1.10,2013-04-16 07:32:00,
2013-04-16 03:02:00,40.9,36.0,29.98,NW,315,10.0,-999.0,84,-99.99,,,0.00,0,weatherlink.com 1.10,2013-04-16 08:02:00,
2013-04-16 03:17:00,40.8,36.0,30.00,NNW,327,11.0,-999.0,84,-99.99,,,0.00,0,weatherlink.com 1.10,2013-04-16 08:17:00,
2013-04-16 03:32:00,40.6,36.0,30.01,NW,306,7.0,-999.0,83,-99.99,,,0.00,0,weatherlink.com 1.10,2013-04-16 08:32:00,
2013-04-16 03:47:00,40.1,35.0,30.02,NW,312,7.0,-999.0,83,-99.99,,,0.00,0,weatherlink.com 1.10,2013-04-16 08:47:00,
2013-04-16 04:02:00,39.6,35.0,30.03,NW,315,7.0,-999.0,84,-99.99,,,0.00,0,weatherlink.com 1.10,2013-04-16 09:02:00,
2013-04-16 04:17:00,39.1,35.0,30.03,NNW,331,5.0,-999.0,84,-99.99,,,0.00,0,weatherlink.com 1.10,2013-04-16 09:17:00,
2013-04-16 04:32:00,38.8,34.0,30.03,NW,313,7.0,-999.0,84,-99.99,,,0.00,0,weatherlink.com 1.10,2013-04-16 09:32:00,
2013-04-16 04:47:00,38.5,34.0,30.03,NW,321,8.0,-999.0,83,-99.99,,,0.00,0,weatherlink.com 1.10,2013-04-16 09:47:00,
2013-04-16 05:02:00,38.2,33.0,30.05,NW,315,5.0,-999.0,82,-99.99,,,0.00,0,weatherlink.com 1.10,2013-04-16 10:02:00,
2013-04-16 05:17:00,37.9,33.0,30.05,NNW,328,5.0,-999.0,82,-99.99,,,0.00,0,weatherlink.com 1.10,2013-04-16 10:17:00,
2013-04-16 05:32:00,37.2,32.0,30.04,NNW,331,9.0,-999.0,82,-99.99,,,0.00,0,weatherlink.com 1.10,2013-04-16 10:32:00,
2013-04-16 05:47:00,36.8,32.0,30.05,NW,318,5.0,-999.0,84,-99.99,,,0.00,0,weatherlink.com 1.10,2013-04-16 10:47:00,
2013-04-16 06:02:00,36.6,32.0,30.07,NW,314,9.0,-999.0,84,-99.99,,,0.00,0,weatherlink.com 1.10,2013-04-16 11:02:00,
2013-04-16 06:17:00,36.6,32.0,30.08,NW,315,10.0,-999.0,83,-99.99,,,0.00,0,weatherlink.com 1.10,2013-04-16 11:17:00,
2013-04-16 06:32:00,36.6,32.0,30.09,NW,305,6.0,-999.0,82,-99.99,,,0.00,14,weatherlink.com 1.10,2013-04-16 11:32:00,
2013-04-16 06:47:00,36.8,32.0,30.09,NW,323,2.0,-999.0,82,-99.99,,,0.00,30,weatherlink.com 1.10,2013-04-16 11:47:00,
2013-04-16 07:03:00,37.2,32.0,30.09,NNW,327,5.0,-999.0,81,-99.99,,,0.00,60,weatherlink.com 1.10,2013-04-16 12:03:00,
2013-04-16 07:18:00,38.0,33.0,30.10,NNW,330,4.0,-999.0,81,-99.99,,,0.00,111,weatherlink.com 1.10,2013-04-16 12:18:00,
2013-04-16 07:33:00,38.8,33.0,30.11,NNW,330,6.0,-999.0,80,-99.99,,,0.00,167,weatherlink.com 1.10,2013-04-16 12:33:00,
2013-04-16 07:48:00,39.3,33.0,30.11,North,355,11.0,-999.0,77,-99.99,,,0.00,221,weatherlink.com 1.10,2013-04-16 12:48:00,
2013-04-16 08:03:00,39.6,33.0,30.10,North,350,11.0,-999.0,76,-99.99,,,0.00,269,weatherlink.com 1.10,2013-04-16 13:03:00,
2013-04-16 08:18:00,40.5,34.0,30.10,NNE,28,10.0,-999.0,77,-99.99,,,0.00,330,weatherlink.com 1.10,2013-04-16 13:18:00,
2013-04-16 08:33:00,40.8,33.0,30.11,NE,37,3.0,-999.0,74,-99.99,,,0.00,160,weatherlink.com 1.10,2013-04-16 13:33:00,
2013-04-16 08:48:00,40.5,32.0,30.13,North,355,9.0,-999.0,73,-99.99,,,0.00,167,weatherlink.com 1.10,2013-04-16 13:48:00,
2013-04-16 09:03:00,40.8,33.0,30.13,North,5,9.0,-999.0,74,-99.99,,,0.00,176,weatherlink.com 1.10,2013-04-16 14:03:00,
2013-04-16 09:18:00,41.1,33.0,30.15,North,355,7.0,-999.0,74,-99.99,,,0.00,230,weatherlink.com 1.10,2013-04-16 14:18:00,
2013-04-16 09:33:00,41.5,34.0,30.14,NNW,344,9.0,-999.0,74,-99.99,,,0.00,236,weatherlink.com 1.10,2013-04-16 14:33:00,
2013-04-16 09:48:00,41.6,32.0,30.15,NNW,342,11.0,-999.0,70,-99.99,,,0.00,283,weatherlink.com 1.10,2013-04-16 14:48:00,
2013-04-16 10:03:00,42.5,33.0,30.14,NNW,338,7.0,-999.0,68,-99.99,,,0.00,297,weatherlink.com 1.10,2013-04-16 15:03:00,
2013-04-16 10:18:00,42.8,32.0,30.14,North,360,7.0,-999.0,67,-99.99,,,0.00,232,weatherlink.com 1.10,2013-04-16 15:18:00,
2013-04-16 10:33:00,43.1,32.0,30.15,NNW,331,4.0,-999.0,66,-99.99,,,0.00,272,weatherlink.com 1.10,2013-04-16 15:33:00,
2013-04-16 10:48:00,43.6,33.0,30.15,NW,306,4.0,-999.0,66,-99.99,,,0.00,246,weatherlink.com 1.10,2013-04-16 15:48:00,
2013-04-16 11:03:00,43.8,33.0,30.16,NW,311,6.0,-999.0,65,-99.99,,,0.00,221,weatherlink.com 1.10,2013-04-16 16:03:00,
2013-04-16 11:18:00,43.9,33.0,30.16,NNW,342,7.0,-999.0,65,-99.99,,,0.00,218,weatherlink.com 1.10,2013-04-16 16:18:00,
2013-04-16 11:33:00,44.1,33.0,30.17,NW,311,4.0,-999.0,65,-99.99,,,0.00,306,weatherlink.com 1.10,2013-04-16 16:33:00,
2013-04-16 11:48:00,44.6,34.0,30.17,North,355,5.0,-999.0,66,-99.99,,,0.00,353,weatherlink.com 1.10,2013-04-16 16:48:00,
2013-04-16 12:03:00,45.5,35.0,30.16,NNW,337,5.0,-999.0,66,-99.99,,,0.00,694,weatherlink.com 1.10,2013-04-16 17:03:00,
2013-04-16 12:18:00,46.2,35.0,30.16,NNE,17,4.0,-999.0,66,-99.99,,,0.00,376,weatherlink.com 1.10,2013-04-16 17:18:00,
2013-04-16 12:33:00,46.8,35.0,30.15,NNW,330,6.0,-999.0,63,-99.99,,,0.00,427,weatherlink.com 1.10,2013-04-16 17:33:00,
2013-04-16 12:48:00,46.7,34.0,30.16,North,5,10.0,-999.0,62,-99.99,,,0.00,392,weatherlink.com 1.10,2013-04-16 17:48:00,
2013-04-16 13:03:00,46.1,34.0,30.15,North,350,4.0,-999.0,64,-99.99,,,0.00,265,weatherlink.com 1.10,2013-04-16 18:03:00,
2013-04-16 13:18:00,46.4,35.0,30.15,North,5,12.0,-999.0,64,-99.99,,,0.00,341,weatherlink.com 1.10,2013-04-16 18:18:00,
2013-04-16 13:33:00,47.1,34.0,30.14,NNW,344,12.0,-999.0,61,-99.99,,,0.00,271,weatherlink.com 1.10,2013-04-16 18:33:00,
2013-04-16 13:48:00,47.4,35.0,30.14,NNE,21,3.0,-999.0,62,-99.99,,,0.00,327,weatherlink.com 1.10,2013-04-16 18:48:00,
2013-04-16 14:03:00,48.5,35.0,30.15,NNE,15,8.0,-999.0,60,-99.99,,,0.00,601,weatherlink.com 1.10,2013-04-16 19:03:00,
2013-04-16 14:19:00,49.6,36.0,30.15,NNW,346,4.0,-999.0,59,-99.99,,,0.00,664,weatherlink.com 1.10,2013-04-16 19:19:00,
2013-04-16 14:34:00,49.5,36.0,30.14,NNW,327,5.0,-999.0,60,-99.99,,,0.00,450,weatherlink.com 1.10,2013-04-16 19:34:00,
2013-04-16 14:49:00,49.5,35.0,30.14,NE,51,0.0,-999.0,57,-99.99,,,0.00,327,weatherlink.com 1.10,2013-04-16 19:49:00,
2013-04-16 15:04:00,49.5,35.0,30.14,North,355,3.0,-999.0,58,-99.99,,,0.00,355,weatherlink.com 1.10,2013-04-16 20:04:00,
2013-04-16 15:19:00,50.1,35.0,30.14,NNE,27,7.0,-999.0,57,-99.99,,,0.00,267,weatherlink.com 1.10,2013-04-16 20:19:00,
2013-04-16 15:34:00,50.1,36.0,30.14,NNW,348,8.0,-999.0,58,-99.99,,,0.00,236,weatherlink.com 1.10,2013-04-16 20:34:00,
2013-04-16 15:49:00,50.2,36.0,30.14,NNE,22,3.0,-999.0,58,-99.99,,,0.00,202,weatherlink.com 1.10,2013-04-16 20:49:00,
2013-04-16 16:04:00,50.5,36.0,30.14,NNW,348,7.0,-999.0,58,-99.99,,,0.00,149,weatherlink.com 1.10,2013-04-16 21:04:00,
2013-04-16 16:19:00,50.2,34.0,30.15,NNE,24,4.0,-999.0,55,-99.99,,,0.00,141,weatherlink.com 1.10,2013-04-16 21:19:00,
2013-04-16 16:34:00,50.4,35.0,30.14,NNE,30,3.0,-999.0,56,-99.99,,,0.00,134,weatherlink.com 1.10,2013-04-16 21:34:00,
2013-04-16 16:49:00,51.1,36.0,30.14,NNE,23,10.0,-999.0,56,-99.99,,,0.00,283,weatherlink.com 1.10,2013-04-16 21:49:00,
2013-04-16 17:04:00,51.0,35.0,30.14,NE,40,5.0,-999.0,55,-99.99,,,0.00,218,weatherlink.com 1.10,2013-04-16 22:04:00,
2013-04-16 17:19:00,51.1,36.0,30.14,NNE,27,9.0,-999.0,57,-99.99,,,0.00,123,weatherlink.com 1.10,2013-04-16 22:19:00,
2013-04-16 17:34:00,50.8,37.0,30.15,NNE,22,11.0,-999.0,59,-99.99,,,0.00,91,weatherlink.com 1.10,2013-04-16 22:34:00,
2013-04-16 17:49:00,50.8,36.0,30.15,NNE,30,5.0,-999.0,57,-99.99,,,0.00,91,weatherlink.com 1.10,2013-04-16 22:49:00,
2013-04-16 18:04:00,51.0,36.0,30.15,NE,54,4.0,-999.0,57,-99.99,,,0.00,77,weatherlink.com 1.10,2013-04-16 23:04:00,
2013-04-16 18:19:00,51.0,37.0,30.15,NE,50,4.0,-999.0,59,-99.99,,,0.00,79,weatherlink.com 1.10,2013-04-16 23:19:00,
2013-04-16 18:34:00,50.8,36.0,30.15,NE,49,3.0,-999.0,58,-99.99,,,0.00,40,weatherlink.com 1.10,2013-04-16 23:34:00,
2013-04-16 18:49:00,50.7,38.0,30.14,NE,51,3.0,-999.0,61,-99.99,,,0.00,30,weatherlink.com 1.10,2013-04-16 23:49:00,
2013-04-16 19:04:00,50.7,38.0,30.14,NE,49,0.0,-999.0,62,-99.99,,,0.00,21,weatherlink.com 1.10,2013-04-17 00:04:00,
2013-04-16 19:19:00,50.5,39.0,30.14,NE,51,2.0,-999.0,64,-99.99,,,0.00,9,weatherlink.com 1.10,2013-04-17 00:19:00,
2013-04-16 19:34:00,50.4,39.0,30.16,NE,49,0.0,-999.0,66,-99.99,,,0.00,0,weatherlink.com 1.10,2013-04-17 00:34:00,
2013-04-16 19:49:00,50.1,40.0,30.15,NE,49,0.0,-999.0,69,-99.99,,,0.00,0,weatherlink.com 1.10,2013-04-17 00:49:00,
2013-04-16 20:04:00,49.8,41.0,30.14,NE,48,0.0,-999.0,71,-99.99,,,0.00,0,weatherlink.com 1.10,2013-04-17 01:04:00,
2013-04-16 20:19:00,49.6,41.0,30.16,NE,39,3.0,-999.0,71,-99.99,,,0.00,0,weatherlink.com 1.10,2013-04-17 01:19:00,
2013-04-16 20:34:00,49.5,41.0,30.15,NNE,19,3.0,-999.0,72,-99.99,,,0.00,0,weatherlink.com 1.10,2013-04-17 01:34:00,
2013-04-16 20:49:00,49.4,40.0,30.16,NNE,14,2.0,-999.0,71,-99.99,,,0.00,0,weatherlink.com 1.10,2013-04-17 01:49:00,
2013-04-16 21:04:00,49.4,41.0,30.17,NNE,13,3.0,-999.0,72,-99.99,,,0.00,0,weatherlink.com 1.10,2013-04-17 02:04:00,
2013-04-16 21:19:00,49.4,41.0,30.18,NNE,13,0.0,-999.0,72,-99.99,,,0.00,0,weatherlink.com 1.10,2013-04-17 02:19:00,
2013-04-16 21:34:00,49.4,41.0,30.18,NNE,15,0.0,-999.0,72,-99.99,,,0.00,0,weatherlink.com 1.10,2013-04-17 02:34:00,
2013-04-16 21:49:00,49.4,41.0,30.18,NNE,27,2.0,-999.0,74,-99.99,,,0.00,0,weatherlink.com 1.10,2013-04-17 02:49:00,
2013-04-16 22:04:00,49.2,41.0,30.17,NE,46,2.0,-999.0,74,-99.99,,,0.00,0,weatherlink.com 1.10,2013-04-17 03:04:00,
2013-04-16 22:19:00,49.2,42.0,30.17,NNE,26,4.0,-999.0,75,-99.99,,,0.00,0,weatherlink.com 1.10,2013-04-17 03:19:00,
2013-04-16 22:34:00,49.1,42.0,30.17,NNE,33,0.0,-999.0,75,-99.99,,,0.00,0,weatherlink.com 1.10,2013-04-17 03:34:00,
2013-04-16 22:49:00,49.1,42.0,30.17,NE,48,0.0,-999.0,75,-99.99,,,0.00,0,weatherlink.com 1.10,2013-04-17 03:49:00,
2013-04-16 23:04:00,49.1,42.0,30.17,NE,49,2.0,-999.0,75,-99.99,,,0.00,0,weatherlink.com 1.10,2013-04-17 04:04:00,
2013-04-16 23:19:00,48.9,42.0,30.17,NE,54,0.0,-999.0,77,-99.99,,,0.00,0,weatherlink.com 1.10,2013-04-17 04:19:00,
2013-04-16 23:34:00,48.8,43.0,30.16,NE,55,7.0,-999.0,79,-99.99,,,0.00,0,weatherlink.com 1.10,2013-04-17 04:34:00,
2013-04-16 23:49:00,49.8,41.0,30.17,NE,56,8.0,-999.0,72,-99.99,,,0.00,0,weatherlink.com 1.10,2013-04-17 04:49:00,